Theta_e
304 304 303 303 303 302 301 301 300 299 299 298 298 297 296 297 296 296 293 296 289 283 284 285 285 281 281 280 276 279 277 278 276 272 271 271 270 271 269 272 270 268 266 266 267 264 262 277 277 271 276 280 280 279
304 303 303 303 303 303 302 301 299 299 299 297 298 297 297 296 297 296 290 294 293 285 284 288 288 288 286 285 282 281 278 277 278 274 274 274 271 272 270 266 275 268 272 270 270 269 277 279 279 282 280 280 280 280
302 303 302 302 302 302 302 301 299 299 298 297 297 297 297 296 296 294 291 291 289 282 282 283 282 287 289 288 290 278 281 281 280 283 277 275 269 273 267 268 272 275 277 272 272 275 276 278 281 282 283 282 282 283
301 301 302 302 302 302 301 301 299 299 298 297 297 297 297 296 295 294 290 291 288 283 275 280 285 283 286 286 286 286 283 283 281 280 275 273 271 275 272 273 272 275 276 273 272 275 277 279 280 281 282 282 282 282
300 301 301 301 301 301 301 300 299 298 297 297 296 296 297 296 295 294 292 291 291 283 276 278 284 284 283 283 282 283 282 280 279 276 275 273 276 274 275 274 272 276 274 272 271 277 277 277 281 282 281 281 281 280
300 300 300 300 300 301 301 300 299 297 296 296 296 296 296 295 293 289 283 288 290 289 279 273 285 279 278 280 281 280 281 280 280 278 276 278 278 275 271 270 275 277 279 279 276 279 279 280 281 282 281 281 281 280
300 300 300 300 300 300 300 299 298 297 296 296 296 296 296 295 292 286 283 287 291 289 279 274 275 279 275 276 281 280 280 279 279 278 276 277 277 276 273 269 276 278 279 279 280 280 277 279 278 281 281 281 281 280
300 300 299 299 298 299 299 298 297 296 295 296 296 295 295 294 291 286 288 291 291 284 281 272 273 275 276 278 276 278 277 277 277 276 275 273 276 275 270 274 272 271 273 277 273 272 274 276 278 278 279 278 275 275
299 299 298 299 299 298 298 297 296 295 295 295 295 291 288 285 282 283 287 287 285 282 274 273 270 269 276 276 275 275 275 271 275 271 273 274 272 268 268 266 266 266 265 265 264 266 267 267 269 269 269 270 270 272
299 299 298 298 298 298 297 296 295 295 295 293 288 282 276 280 284 284 280 278 278 277 277 272 273 271 275 274 274 272 272 270 268 271 274 269 269 267 267 267 267 267 265 262 261 264 263 263 264 263 262 263 264 266
298 298 298 298 297 297 296 295 295 295 290 285 281 278 278 280 279 275 272 271 270 269 274 274 273 272 276 271 271 273 271 270 264 268 267 268 266 266 268 267 268 267 265 263 262 262 262 261 260 260 260 262 263 264
298 298 298 297 297 297 295 295 294 287 285 284 279 277 276 273 272 270 268 263 264 269 271 271 273 270 273 274 271 271 268 267 263 268 266 264 265 266 266 265 266 266 265 263 262 259 259 260 259 259 259 261 263 265
298 298 297 297 296 295 295 294 290 287 283 282 278 272 273 267 266 265 263 266 265 267 268 270 270 270 271 270 270 270 266 265 268 265 264 265 265 265 264 265 264 265 265 264 262 260 259 258 259 260 261 262 264 265
298 298 296 296 295 295 295 292 289 286 284 278 273 266 268 265 266 269 270 272 272 270 269 269 269 270 271 269 270 266 269 268 264 263 263 264 264 263 264 264 263 262 261 260 260 259 257 257 260 261 261 262 262 261
297 296 295 295 294 295 294 290 286 282 280 274 273 268 264 269 268 267 262 264 268 266 269 269 268 268 268 266 269 268 265 263 264 261 263 263 263 263 263 263 262 260 259 257 258 257 257 259 260 260 260 260 261 260
295 294 291 294 294 294 290 287 283 278 272 272 270 269 263 266 271 265 265 267 269 269 269 269 268 267 266 267 265 264 264 261 260 262 262 263 262 262 262 262 261 258 256 256 257 258 260 259 259 259 259 258 258 258
291 288 294 294 293 290 288 283 280 271 276 271 271 265 271 269 271 272 270 270 270 270 269 270 266 266 270 266 264 261 258 260 261 261 262 262 261 262 262 260 256 255 256 256 258 259 260 260 260 259 257 257 257 257
287 292 294 292 288 285 278 277 274 274 271 270 271 270 266 268 270 269 267 268 269 270 270 269 270 267 266 262 260 261 261 261 261 261 261 262 262 262 261 259 257 256 257 257 259 260 260 260 259 258 258 258 258 258
290 291 290 290 287 282 278 274 273 272 271 269 267 266 266 267 264 263 264 266 267 269 268 269 267 264 261 262 259 259 259 260 259 260 261 262 262 260 259 259 258 258 258 258 259 259 259 259 259 259 259 259 258 258
292 292 290 287 285 279 274 271 271 273 271 269 266 267 267 266 264 265 266 267 268 268 267 265 261 261 260 260 260 260 260 261 259 258 259 260 262 260 259 259 259 259 259 259 259 260 259 259 259 259 259 259 258 257
288 287 285 283 276 274 272 270 269 267 266 269 263 266 266 265 265 265 265 264 266 261 263 261 261 261 261 261 261 261 260 260 258 258 258 258 260 260 260 260 260 259 259 259 258 258 258 257 258 259 258 257 258 257
283 285 280 279 273 272 269 267 269 265 267 265 265 263 266 266 264 263 262 263 260 259 259 259 259 259 259 259 260 261 260 259 260 260 260 260 258 258 258 259 259 258 258 258 258 258 257 258 258 258 257 257 257 256
282 279 274 272 269 268 264 267 268 264 267 265 264 266 264 263 261 261 260 259 259 259 258 258 259 259 259 260 261 261 260 259 259 259 259 259 259 259 259 259 260 258 258 258 259 259 258 258 258 258 258 257 257 256
275 268 266 266 266 262 265 263 263 264 264 264 264 263 263 261 258 263 261 260 258 258 259 258 259 259 261 261 260 259 259 259 260 260 259 260 259 258 259 259 259 259 259 259 259 258 258 257 258 257 256 255 254 254
269 263 264 261 262 262 260 262 261 263 261 258 260 262 261 256 263 261 260 259 258 258 258 259 259 259 258 259 259 259 259 258 258 258 257 257 260 260 259 259 258 257 260 259 258 257 256 256 255 255 254 254 253 252
262 258 260 258 259 262 261 259 259 259 258 260 261 258 257 261 260 260 259 257 257 257 257 257 256 258 259 259 258 258 257 258 259 259 257 255 255 257 259 259 258 257 256 258 257 255 254 253 252 251 251 250 250 251
258 257 258 257 259 260 259 259 258 260 258 261 260 259 260 258 258 259 257 256 256 258 257 257 257 257 258 259 260 261 259 256 254 254 253 252 251 251 252 255 254 254 254 254 254 254 252 252 252 251 250 250 248 249
256 254 256 256 256 255 256 257 256 257 258 254 255 256 257 258 259 257 256 256 255 255 256 258 259 259 259 260 260 258 258 255 253 252 253 253 252 252 250 252 252 255 253 253 254 253 252 252 251 251 251 251 249 248
255 256 257 251 251 255 254 256 256 256 254 255 259 258 256 256 254 254 255 254 253 254 257 259 260 259 260 259 255 253 252 253 254 252 252 254 255 255 251 251 252 253 254 255 256 253 251 251 250 250 249 251 250 249
254 256 254 248 251 252 253 252 254 251 249 249 250 252 254 253 252 249 251 253 254 255 256 256 257 256 255 254 255 254 250 248 248 252 254 253 254 251 250 251 252 252 253 253 254 253 256 252 253 250 250 250 251 251
256 255 253 252 251 253 252 250 248 248 249 250 247 254 254 251 253 252 251 252 251 254 257 257 257 254 253 253 251 252 253 249 245 245 246 248 249 249 249 250 250 250 250 251 251 251 252 251 251 250 250 248 247 248
257 252 252 250 251 251 251 252 251 253 252 254 253 250 251 253 252 254 252 252 255 255 255 254 253 253 251 249 248 248 248 247 248 248 247 250 249 248 249 249 248 249 250 251 251 251 249 249 250 249 249 249 248 247
258 256 251 250 250 251 251 252 251 252 252 251 251 248 249 250 252 253 253 251 252 253 253 253 253 251 249 246 246 247 247 246 246 254 253 253 252 251 248 248 248 249 250 250 250 250 248 247 248 247 248 247 248 248
Wind_Speed
31 27 27 26 24 23 24 22 19 17 17 15 14 14 12 12 11 5 1 8 4 4 7 9 12 13 9 8 11 7 8 6 5 8 9 13 10 12 10 18 16 13 9 10 10 13 21 19 18 20 19 15 13 10
30 28 28 28 26 24 23 23 20 18 18 15 15 14 13 13 9 6 2 3 1 2 4 4 10 15 17 17 11 7 9 10 5 8 8 8 11 7 10 12 17 16 15 11 11 9 10 12 9 8 14 13 14 13
30 28 27 25 25 25 23 24 20 19 18 16 16 14 14 10 12 7 3 3 2 3 5 5 8 6 5 10 11 7 7 8 7 8 7 4 7 3 5 7 12 11 9 9 16 17 20 21 11 12 11 13 15 12
30 28 28 27 25 24 23 24 21 20 17 17 16 14 11 14 11 9 3 4 2 2 5 4 1 5 1 6 10 13 14 7 6 4 5 4 3 4 3 7 7 11 8 12 13 18 21 15 16 18 20 16 15 13
30 29 29 29 26 24 24 23 21 20 17 16 15 11 15 14 13 4 2 4 4 3 4 6 8 4 5 8 11 14 14 11 5 4 5 6 4 4 6 5 10 16 17 12 13 18 13 16 12 14 14 14 15 14
29 27 26 27 26 24 25 23 21 18 17 16 12 13 17 14 13 3 2 3 5 3 3 5 2 4 2 5 7 7 8 7 5 4 5 4 1 4 6 9 17 20 15 16 17 19 18 17 15 14 12 15 16 14
27 26 25 24 24 24 25 23 21 18 16 15 12 17 18 16 4 2 1 3 10 4 3 5 5 2 1 2 2 3 4 3 4 5 6 9 7 7 8 15 19 20 11 14 12 16 17 17 14 15 13 14 9 9
25 23 22 23 22 23 25 23 21 17 16 13 12 14 14 12 7 2 3 8 7 1 2 5 6 4 2 2 2 1 3 3 6 5 1 4 3 5 8 6 10 13 13 9 13 15 13 14 12 11 7 6 6 9
26 25 24 24 24 21 25 23 20 18 15 11 16 15 5 3 2 2 6 8 3 2 3 3 4 5 1 1 2 2 2 5 1 4 5 3 5 8 4 7 9 9 6 11 15 11 9 6 9 7 7 7 8 10
25 23 23 23 22 22 26 24 20 18 20 22 5 3 2 2 3 6 3 2 2 0 3 5 1 5 2 0 2 2 2 4 4 5 2 5 7 7 6 5 5 6 7 6 7 9 12 11 10 12 9 9 9 12
25 24 23 23 22 26 25 23 21 24 14 2 3 3 3 1 1 1 2 3 2 4 5 4 5 6 3 4 3 3 3 3 5 2 4 4 3 4 6 7 7 7 6 5 6 9 10 11 13 13 14 10 10 12
24 25 24 24 25 27 25 24 28 7 3 6 8 6 2 2 1 3 2 1 5 4 3 3 2 4 3 2 4 4 4 2 7 2 3 4 5 6 7 9 9 8 7 8 6 8 9 11 10 11 10 9 10 11
24 25 21 29 29 27 25 29 15 26 13 3 4 4 1 1 3 5 5 3 3 4 4 3 4 4 2 3 5 4 6 6 1 4 4 3 6 8 8 8 7 6 8 10 11 8 8 10 9 7 8 8 11 6
25 25 29 30 29 26 27 24 27 11 4 2 5 4 4 4 6 5 3 1 2 2 2 3 3 4 2 4 4 5 4 2 5 6 2 5 9 9 9 8 8 9 8 8 10 9 9 7 7 5 6 7 6 5
26 30 28 25 25 26 28 26 13 4 3 3 3 4 6 2 3 1 2 3 3 1 2 2 3 2 3 5 4 4 4 6 2 4 4 8 11 9 11 10 8 7 9 8 8 8 8 5 5 5 6 7 6 5
30 26 9 25 25 30 26 14 6 3 3 3 2 2 2 2 2 2 2 3 2 1 1 2 4 4 5 4 4 6 5 2 4 5 8 10 11 10 10 9 7 5 6 7 7 7 6 5 4 3 5 6 6 6
13 4 24 28 31 26 14 5 3 4 2 3 2 1 1 1 2 1 1 2 1 1 2 2 4 6 4 4 2 4 3 7 9 9 8 11 12 11 8 7 3 5 6 6 6 5 5 4 3 4 6 5 6 6
6 17 29 33 19 7 4 4 3 2 3 2 2 3 1 1 2 0 1 1 1 1 2 2 5 4 4 6 3 3 5 7 7 8 9 10 10 8 7 8 5 5 5 5 5 3 3 4 4 5 5 3 3 5
16 19 31 25 8 5 3 2 2 2 1 1 1 1 0 1 0 1 2 2 2 2 4 3 4 2 3 3 6 8 7 8 9 9 9 8 6 6 7 5 4 5 5 4 4 3 4 6 5 4 3 3 5 5
30 25 20 12 5 3 4 2 1 2 1 2 1 1 1 2 2 1 0 2 2 1 2 2 2 3 4 5 6 7 7 8 8 7 7 7 6 7 6 6 4 4 3 3 3 3 3 4 4 4 4 5 6 6
14 10 10 4 4 6 4 1 2 2 2 1 1 1 2 0 2 2 2 3 2 3 2 2 3 4 6 5 5 6 7 7 7 6 7 7 6 6 5 4 4 3 3 3 4 5 6 5 5 5 6 6 6 6
4 9 4 5 5 4 5 3 3 2 0 1 1 1 1 1 2 2 3 2 3 2 2 3 4 6 6 6 6 6 7 8 6 5 5 5 5 5 5 5 4 4 5 5 4 4 4 4 5 5 5 5 6 6
9 5 5 4 5 5 1 1 0 3 1 1 1 1 1 1 2 3 2 1 1 1 2 3 6 7 7 6 5 5 5 7 5 5 5 4 4 4 4 5 4 3 4 5 4 4 4 4 4 4 4 4 5 6
10 7 5 4 3 2 1 3 1 2 1 2 1 1 1 2 3 0 2 1 1 1 3 6 5 5 3 3 4 5 6 6 4 3 5 5 4 5 4 4 4 4 3 3 3 3 3 3 3 4 4 4 4 4
6 6 4 4 2 3 3 2 3 1 1 1 1 1 1 2 0 2 1 1 2 3 4 4 4 4 4 4 4 5 5 5 5 5 5 5 4 2 3 3 3 3 3 2 2 3 3 3 4 4 5 4 5 5
5 4 3 1 0 1 3 2 2 2 2 0 1 1 1 1 2 1 1 2 2 2 3 4 4 4 3 4 5 5 6 6 4 2 4 5 5 4 3 2 2 3 5 3 2 3 4 4 4 5 4 5 6 4
3 1 1 0 1 2 3 2 2 1 2 1 1 1 1 3 1 1 1 1 1 1 3 4 3 3 4 5 4 2 2 4 3 2 3 3 3 3 2 2 3 3 4 4 3 3 3 2 3 3 3 2 2 2
2 2 3 1 3 2 4 2 2 1 1 1 1 2 2 1 0 1 1 1 3 5 5 5 4 4 4 4 4 4 2 1 2 3 3 2 1 2 2 1 2 4 3 4 3 3 3 3 3 2 2 2 1 1
3 1 1 4 3 4 3 2 1 1 1 1 1 1 1 0 1 2 2 3 4 3 4 3 2 4 2 2 2 2 2 3 2 3 2 2 3 2 3 3 3 3 3 3 6 5 6 4 3 2 2 1 0 1
1 1 4 2 4 2 1 1 1 1 1 2 2 1 1 0 0 1 3 3 3 3 4 4 3 4 3 3 3 2 2 2 2 1 2 1 2 1 2 3 3 3 3 3 4 4 6 4 2 1 1 1 2 2
0 2 4 3 2 0 1 1 1 1 0 1 1 1 2 2 1 1 2 3 3 4 4 3 2 2 3 3 3 3 2 1 3 3 3 1 1 2 2 2 2 2 2 3 2 2 2 1 1 2 2 3 4 4
2 3 4 3 1 1 0 1 2 2 2 1 2 1 0 0 2 2 2 4 3 3 4 4 4 3 3 2 3 3 6 5 4 2 1 1 2 2 2 2 2 2 2 1 1 1 1 1 2 3 3 5 6 6
2 2 2 3 2 2 1 2 4 3 2 2 3 2 2 1 1 2 1 0 2 3 5 4 4 3 4 3 3 3 2 2 4 1 3 3 2 2 1 1 1 1 1 1 2 1 2 2 3 4 5 6 7 7
Wind_Direction
196 198 200 201 199 197 197 194 193 195 193 200 203 213 216 224 221 196 209 182 186 239 259 246 256 261 264 255 271 280 306 196 232 236 250 261 253 221 230 227 219 202 200 219 228 248 259 252 255 247 248 258 268 298
196 195 199 200 197 191 193 189 192 192 192 197 207 215 218 222 203 149 173 132 186 247 273 276 265 264 262 260 267 257 259 288 267 271 259 267 243 202 211 231 227 237 226 232 210 231 252 260 253 270 235 257 265 287
193 195 196 191 192 194 188 187 189 188 191 199 209 212 217 201 175 160 136 145 179 261 265 239 229 247 244 240 240 250 260 255 261 275 283 277 251 198 205 236 256 242 213 235 248 253 252 256 259 250 246 251 265 259
196 197 194 190 197 190 187 184 184 187 193 199 206 215 211 184 179 146 144 164 181 294 268 267 160 250 253 225 205 220 256 279 259 229 233 242 256 199 237 263 247 244 237 230 256 255 258 265 247 245 250 253 265 267
194 197 193 189 190 187 184 181 181 182 195 202 204 207 184 179 166 134 128 190 202 235 299 292 298 248 187 204 223 229 234 243 247 239 236 249 241 206 229 257 248 247 244 238 244 257 258 265 260 244 246 257 263 268
188 193 191 195 189 185 178 177 178 182 191 195 196 196 174 180 134 111 242 198 202 190 276 289 319 225 198 236 240 243 248 248 236 252 255 238 263 212 250 240 245 254 248 248 254 265 272 277 274 273 268 266 272 272
183 186 187 192 196 184 176 175 174 181 190 185 198 185 181 175 146 186 236 122 166 136 243 275 264 133 158 260 218 232 219 236 243 253 238 252 238 210 246 255 256 269 276 281 266 271 265 263 266 272 269 270 268 261
179 177 182 191 194 188 176 170 172 179 183 182 194 177 182 174 170 157 31 154 144 190 224 262 267 280 21 251 255 137 237 216 222 253 220 243 221 234 251 277 3 6 342 320 358 344 326 320 309 298 312 318 288 275
171 172 183 187 183 184 178 166 169 174 171 169 116 93 82 55 131 110 78 68 44 254 236 238 263 294 132 257 283 241 248 252 134 243 235 219 226 228 10 346 357 358 355 319 319 305 312 327 317 330 348 347 327 312
167 172 175 174 175 180 168 163 163 158 129 120 82 92 131 91 103 135 45 175 216 296 243 257 36 252 240 205 256 288 193 242 252 219 184 230 250 79 47 29 6 347 344 349 342 338 340 321 327 322 315 302 287 288
167 165 167 173 172 164 160 155 153 131 113 120 126 95 81 208 163 63 177 226 119 234 212 244 226 257 172 241 266 221 276 265 251 204 230 236 237 92 31 7 357 355 347 330 289 282 287 284 291 298 300 303 301 293
164 164 165 166 166 151 155 152 136 111 105 120 108 94 93 51 103 218 208 138 227 254 185 227 234 220 259 262 251 204 240 201 251 92 239 249 95 49 2 346 341 339 320 312 302 286 293 293 284 283 288 294 295 290
156 158 163 146 149 155 153 146 125 122 114 81 68 93 210 97 185 213 214 204 245 191 218 215 250 225 200 223 243 244 234 241 64 222 230 55 76 8 347 333 329 326 324 315 311 306 293 293 292 277 296 303 297 299
151 145 144 151 155 153 147 137 138 126 84 109 152 187 211 183 240 200 217 229 56 244 213 226 256 236 185 234 239 250 239 252 242 233 197 66 9 340 330 329 327 325 325 306 308 308 298 296 314 331 332 322 328 351
146 142 145 147 153 147 138 140 125 50 102 141 155 213 210 275 251 31 8 292 203 255 256 263 247 258 231 262 247 268 245 245 281 23 360 348 329 323 323 322 321 325 313 307 310 309 309 321 346 6 5 1 8 28
136 139 140 151 141 130 129 118 55 76 67 137 158 207 122 247 193 178 194 259 139 209 225 235 269 263 239 235 235 236 257 350 9 336 330 318 321 321 316 316 329 311 299 299 304 305 323 353 13 36 39 31 31 47
108 112 148 134 127 129 111 88 126 57 163 165 224 96 289 325 279 30 204 58 211 249 262 292 264 244 285 231 212 6 353 320 321 319 314 317 316 314 325 319 321 308 309 311 308 331 345 5 17 51 53 40 52 55
114 137 135 125 117 99 47 39 87 120 196 173 231 113 194 320 302 189 73 260 259 259 248 263 312 265 282 337 2 322 321 316 308 311 316 316 317 341 329 329 328 322 320 326 337 339 6 19 45 59 62 54 76 66
126 125 128 132 107 98 106 86 349 171 174 70 100 110 289 359 19 315 274 284 271 313 292 275 271 328 343 29 312 312 318 321 317 323 313 329 346 342 333 337 330 357 3 2 13 24 43 42 42 40 43 45 62 55
123 117 105 88 58 93 98 71 309 105 195 81 127 139 344 26 16 336 351 358 287 223 249 314 2 18 309 329 308 301 310 320 316 315 326 338 342 337 353 339 353 351 12 30 44 41 59 62 47 47 58 64 71 62
90 94 67 60 54 58 70 114 90 32 105 56 38 324 68 70 46 31 20 339 71 31 6 15 331 332 322 312 302 309 315 328 317 317 321 325 334 339 349 4 4 17 27 24 33 38 40 47 47 49 56 58 58 63
67 75 77 31 70 45 82 26 53 90 349 69 138 327 34 81 44 29 312 53 56 42 353 322 322 322 318 322 328 335 327 323 325 327 340 340 355 2 7 10 22 42 42 36 38 50 54 50 53 61 67 68 64 59
86 52 53 40 78 39 63 303 83 15 75 40 198 152 83 73 43 312 75 56 76 42 320 299 307 300 286 288 321 338 350 338 349 354 349 360 10 16 20 21 27 50 73 61 57 68 71 72 73 80 78 71 74 69
39 49 50 54 42 120 17 44 40 57 79 24 16 39 60 15 327 119 77 46 54 317 340 338 325 331 316 339 7 352 346 339 347 20 6 354 20 29 26 32 45 51 52 80 88 92 88 83 87 74 67 72 60 74
72 5 30 35 21 70 63 57 4 50 92 35 344 346 73 324 152 58 38 38 9 6 355 348 349 4 1 343 358 2 7 349 342 358 12 349 342 52 50 53 56 30 352 93 86 89 62 46 51 57 52 54 67 60
75 343 37 159 344 99 151 119 194 173 115 185 236 36 299 292 66 41 37 8 347 335 348 351 342 336 19 14 353 3 358 341 302 353 12 357 350 336 7 17 7 24 12 5 51 65 66 57 67 74 70 55 45 49
104 285 20 39 16 113 84 78 70 103 126 179 12 352 58 58 323 21 61 156 295 351 315 301 283 286 309 324 330 337 4 20 38 40 344 351 358 356 333 356 17 356 337 357 36 64 105 97 94 82 92 76 43 10
100 152 153 209 73 0 119 80 78 85 69 102 240 51 117 156 66 33 338 18 315 314 294 273 250 259 284 295 330 343 348 53 197 245 233 206 129 55 9 7 2 27 23 20 51 62 67 87 100 104 96 98 147 221
64 58 78 42 45 42 45 42 77 56 27 291 52 127 159 71 11 318 351 333 314 292 302 339 356 334 333 62 72 30 348 323 343 35 30 330 340 13 11 3 13 20 23 55 73 95 94 93 89 84 98 108 165 248
15 349 88 58 80 67 14 334 17 75 15 6 334 164 171 181 307 316 304 335 343 337 328 308 311 355 347 343 323 325 64 3 314 236 166 256 275 55 17 13 19 13 8 31 53 32 51 48 59 59 322 290 274 276
143 84 75 51 89 33 334 13 151 154 44 39 26 346 73 342 289 195 314 321 298 294 318 349 335 30 351 347 343 328 327 81 4 310 291 295 52 56 38 21 5 359 16 28 23 16 6 358 3 323 312 303 301 296
46 65 117 100 310 321 144 5 354 17 1 55 33 14 38 48 21 305 11 336 342 359 2 351 341 329 354 308 279 259 261 296 317 4 346 47 50 41 31 12 7 344 340 11 352 345 15 341 309 302 298 300 306 300
106 89 78 91 56 360 334 75 23 355 30 38 29 5 5 6 166 306 30 184 310 321 325 326 325 317 317 302 288 303 301 261 276 342 103 83 77 70 43 4 340 340 357 355 336 344 331 308 287 283 296 297 296 298